Location: Sungai Bunut
(2.6333°N, 113.7333°E)
Time: 11:05:21
(UTC+00:00)

A-11 Canister half - Pass Details

Date: 04 December 2023
Orbit: 1526 x 1682 km, 47.3° (Epoch: 04 March)

Event Time Altitude Azimuth Distance (km) Brightness Sun altitude
Exits shadow 21:09:38 21° 296° (WNW) 2,963 9.8 -16.2°
Maximum altitude 21:15:56 50° 231° (SW) 1,897 9.3 -14.7°
Drops below altitude 10° 21:24:49 10° 158° (SSE) 3,692 11.7 -12.7°
Sets 21:28:00 0° 152° (SSE) 4,673 12.4 -11.9°
